Regional Weather Roundup
Issued by NWS

Home | Current Version | Previous Version | Text Only | Print | Product List | Glossary Off
Versions: 1 2 3 4 5 6 7 8 9 10 11 12 13 14 15 16 17 18 19 20 21 22 23 24 25 26 27 28 29 30 31 32 33 34 35 36 37 38 39 40 41 42 43 44 45 46 47 48 49 50

000
ASUS45 KTFX 030010
RWRMT
MONTANA REGIONAL WEATHER ROUNDUP
NATIONAL WEATHER SERVICE GREAT FALLS MT
600 PM MDT THU JUL 02 2015

NOTE: "FAIR" INDICATES FEW OR NO CLOUDS BELOW 12000 FEET WITH NO
SIGNIFICANT WEATHER AND/OR OBSTRUCTIONS TO VISIBILITY.

MTZ001>007-043-030100-
WEST OF THE DIVIDE

CITY           SKY/WX    TMP DP  RH WIND       PRES   REMARKS
KALISPELL      MOCLDY    91  47  21 VRB3      29.98F
MISSOULA       SUNNY     93  42  17 NW9       29.97F
BUTTE          SUNNY     87  34  15 NE10      30.13F
MULLAN PASS    SUNNY     78  39  24 VRB3      30.21F
DEER LODGE       N/A     88  43  20 CALM      30.12F
EUREKA           N/A     93  43  17 S7        29.96F
HAMILTON         N/A     90  43  19 N7        29.99F
PLAINS           N/A     97  48  18 N5        29.94F HX  93
RONAN            N/A     90  52  27 CALM      30.04F
$$

MTZ008-052>055-030100-
SOUTHWEST MONTANA

CITY           SKY/WX    TMP DP  RH WIND       PRES   REMARKS
BOZEMAN        SUNNY     88  43  20 VRB5      30.08F
DILLON         SUNNY     89  41  18 N7        30.09F
W YELLOWSTONE  SUNNY     82  25  12 NW7       30.21S
THREE FORKS      N/A     89  41  18 CALM      30.06F
TWIN BRIDGES     N/A     89  44  20 W8        30.06F
$$

MTZ009-010-012-014-046-048-049-054-030100-
EAST SLOPES AND CENTRAL MONTANA

CITY           SKY/WX    TMP DP  RH WIND       PRES   REMARKS
CUT BANK       MOSUNNY   84  47  27 SE9       30.07F
GREAT FALLS    SUNNY     85  48  27 E12       30.07F
MALMSTROM AFB  SUNNY     84  47  27 E10G18    30.07F
HELENA         SUNNY     91  45  20 NE6       30.03F
CONRAD           N/A     82  55  39 NE1       30.10F
$$

MTZ011-013-016-021-045-047-050-051-030100-
NORTH CENTRAL MONTANA

CITY           SKY/WX    TMP DP  RH WIND       PRES   REMARKS
HAVRE          SUNNY     85  51  31 E6        30.03F
LEWISTOWN      SUNNY     81  49  32 NE7       30.14F
CHINOOK          N/A     82  54  36 SE5       30.04F
FORT BENTON      N/A     84  48  28 CALM      30.05F
$$

MTZ017>020-022>027-061-062-030100-
NORTHEAST MONTANA

CITY           SKY/WX    TMP DP  RH WIND       PRES   REMARKS
GLASGOW        MOSUNNY   82  53  36 N10       30.02F
JORDAN           N/A     81  54  39 N13       30.05F
SIDNEY         SUNNY     81  57  44 N9        30.01S
WOLF POINT     SUNNY     83  58  42 W3        30.01S
MALTA            N/A     81  55  40 MISG      30.01F
PLENTYWOOD       N/A     79  57  47 NW9       30.01R
SCOBEY           N/A     77  57  49 N8        30.03R
$$

MTZ028>42-056>058-030100-
SOUTHCENTRAL AND SOUTHEAST MONTANA

CITY           SKY/WX    TMP DP  RH WIND       PRES   REMARKS
BAKER          PTSUNNY   78  56  46 NE7       30.06S
BILLINGS       MOSUNNY   83  49  30 E14       30.10S
LIVINGSTON     SUNNY     86  47  25 E12       30.10F
MILES CITY     MOSUNNY   83  53  35 N14G23    30.03F
FORSYTH          N/A     82  54  36 N6        30.04F
LAUREL           N/A     84  49  29 NE8       30.07F
ROUNDUP          N/A     82  48  30 N9        30.01F
$$

REGIONAL REPORTS...DAKOTAS

CITY           SKY/WX    TMP DP  RH WIND       PRES   REMARKS
WILLISTON      MOSUNNY   82  57  42 N10       29.99F
MINOT          CLOUDY    77  65  66 NW8       29.95S HAZE
DICKINSON      SUNNY     79  57  46 N9        30.00F
BEACH          FAIR      77  63  61 NE5       30.05S HAZE
CROSBY         FAIR      75  68  78 N9        30.00S
BISMARCK       CLOUDY    77  62  59 N12       29.97S HAZE
GRAND FORKS    CLOUDY    76  66  71 SW9       29.87F
FARGO          PTSUNNY   76  54  46 S9        29.93F
BUFFALO SD       N/A     79  56  45 N8        30.00S
RAPID CITY     SUNNY     78  57  48 N20       30.06S
$$

REGIONAL REPORTS...WYOMING/IDAHO/WASHINGTON

CITY           SKY/WX    TMP DP  RH WIND       PRES   REMARKS
GILLETTE       SUNNY     77  54  44 N14       30.13F
SHERIDAN       SUNNY     83  52  34 VRB5      30.12S
BUFFALO WY     PTSUNNY   75  55  49 N9        30.18F
CODY           SUNNY     81  48  32 N14       30.15F
YELLOWSTONE LA   N/A     77  35  21 CALM      30.31F
IDAHO FALLS    SUNNY     91  45  20 SW7       30.04F
SALMON         SUNNY     97  36  11 N9        29.93F HX  92
BOISE          SUNNY    103  42  12 NW13      29.89F HX  98
SPOKANE        MOSUNNY   96  40  14 W7G20     29.94F HX  92
$$

REGIONAL REPORTS...ALBERTA

CITY           SKY/WX    TMP DP  RH WIND       PRES   REMARKS
EDMONTON       SUNNY     84  52  32 W5        29.96F
CALGARY        MOSUNNY   81  55  41 S14       30.06F
LETHBRIDGE     MOSUNNY   82  55  39 E10       30.04F
MEDICINE HAT   MOSUNNY   84  54  34 SW8       30.01F
WATERTON GATE    N/A     81  52  36 NE6         N/A
ONEFOUR          N/A     84  43  23 W7          N/A
$$

REGIONAL REPORTS...SASKATCHEWAN

CITY           SKY/WX    TMP DP  RH WIND       PRES   REMARKS
SWIFT CURRENT  SUNNY     79  55  44 NW7       30.05F HAZE
REGINA         SUNNY     79  59  50 N12       30.00S SMOKE
SASKATOON      MOSUNNY   82  57  42 NW8       29.99F
CYPRESS HILLS    N/A     75  48  38 N3          N/A
VAL MARIE        N/A     77  55  47 N9          N/A
ASSINIBOIA       N/A     82  54  36 SW7         N/A
$$



USA.gov is the U.S. government's official web portal to all federal, state and local government web resources and services.